Preview of NWS' New Version of Forecast
This preview is not operational and should not be used for support decisions.

Regional Weather Roundup (RWR)

Issued by Philadelphia/Mt Holly (PHI)

                            
000
ASUS41 KPHI 241912
RWRPHI

REGIONAL WEATHER ROUNDUP
NATIONAL WEATHER SERVICE MOUNT HOLLY NJ
300 PM EDT FRI MAY 24 2019

NOTE:  "FAIR" INDICATES FEW OR NO CLOUDS BELOW 12,000 FEET WITH NO
SIGNIFICANT WEATHER AND/OR OBSTRUCTIONS TO VISIBILITY.

 * = STATION DOES NOT REPORT PRECIPITATION (E.G. RAIN, SNOW, ETC.) 
        OR FOG.

NJZ015>026-242000-
SOUTHERN NEW JERSEY
  
CITY           SKY/WX    TMP DP  RH WIND       PRES   REMARKS
POMONA         FAIR      80  52  37 NW23G35   29.95R                  
WILDWOOD*      FAIR      79  54  41 NW15G23   29.99R                  
MILLVILLE      FAIR      80  51  36 NW16G25   29.97R                  
WRIGHTSTOWN    FAIR      77  52  41 N20G26    29.93S                  
MOUNT HOLLY    FAIR      79  53  40 N12G23    29.96R                  
TRENTON        FAIR      76  52  43 N15G30    29.96R                  

$$
NJZ001>014-242000-
NORTHERN NEW JERSEY
  
CITY           SKY/WX    TMP DP  RH WIND       PRES   REMARKS
SUSSEX         CLOUDY    68  52  56 N10G22    30.01R                  
ANDOVER*         N/A     73  53  49 NW10G18   29.99R                  
MORRISTOWN     MOSUNNY   73  55  53 N13G23    29.97R                  
NEWARK         PTSUNNY   76  49  38 NW25G36   29.94R                  
TETERBORO      FAIR      74  51  44 NW17G31   29.93R                  
CALDWELL       FAIR      74  51  44 NW14G25   29.96R                  
SOMERVILLE     FAIR      75  51  43 NW16G28   29.95S                  
ALLAIRE*       FAIR      77  52  41 NW22G31   29.95R                  
TOMS RIVER*    FAIR      77  52  41 NW23G35   29.93S                  

$$
PAZ043-044-047-054-055-060>062-066>071-242000-
EASTERN PENNSYLVANIA
  
CITY           SKY/WX    TMP DP  RH WIND       PRES   REMARKS
PHILADELPHIA   FAIR      79  49  34 NW20G29   29.97S                  
NORTH PHILA    FAIR      80  51  36 NW13G29   29.98S                  
BLUE BELL*     FAIR      77  51  40 W7G18     29.99S                  
DOYLESTOWN     FAIR      79  53  40 NW10G18   29.97S                  
QUAKERTOWN*    MOSUNNY   77  52  41 NW10G17   30.00                   
PERKASIE*      MOCLDY    75  50  41 NW13G22   30.00S                  
POTTSTOWN      FAIR      76  51  41 NW9G20    30.00S                  
LANCASTER      FAIR      80  54  40 NW16G23   30.00F                  
COATESVILLE    FAIR      77  52  41 NW13      30.02S                  
WEST CHESTER   FAIR      77  46  33 NW13G21   30.00F                  
READING        FAIR      79  54  41 N14G22    29.99S                  
ALLENTOWN      FAIR      79  51  37 NW15G23   29.99R                  
QN CITY/ALNTWN FAIR      77  54  44 NW9G20    30.00S                  
MOUNT POCONO   FAIR      66  51  58 NW15G32   30.03S                  
HAZLETON       PTSUNNY   72  48  43 NW13G18   30.07S                  
LEHIGHTON      CLOUDY    73  46  38 N8        30.01R                  
WILKES BARRE   FAIR      70  52  52 N17G25    30.04S                  

$$
DEZALL-MDZ008-012-015-019-020-242000-
DELAWARE AND EASTERN MARYLAND
  
CITY           SKY/WX    TMP DP  RH WIND       PRES   REMARKS
WILMINGTON     FAIR      81  51  35 NW17G26   29.99S                  
DOVER          SUNNY     79  50  35 NW17G28   29.98R                  
CHESWOLD         N/A     79  48  34 N18G24    29.99S                  
GEORGETOWN     FAIR      82  50  32 NW12G23   29.99R                  
EASTON         SUNNY     82  52  34 NW13G18   30.05R                  
STEVENSVILLE   FAIR      79  55  44 NW10      30.01S                  
ABERDEEN       MOSUNNY   81  52  36 W16       30.01                   
PATUXENT       FAIR      83  55  38 NW18      30.01                   
OCEAN CITY     NOT AVBL                                               
WALLOPS ISLAND FAIR      83  54  36 NW22G31   29.98S                  
CAMBRIDGE      SUNNY     79  54  41 NW14G24   30.01S                  
SALISBURY      FAIR      81  54  39 W15G25    29.99R                  

$$
PAZ001-021-NYZ056-072-MDZ011-DCZ001-242000-
OTHER NEARBY LOCATIONS
  
CITY           SKY/WX    TMP DP  RH WIND       PRES   REMARKS
HARRISBURG     FAIR      80  51  36 NW16G24   30.01S                  
STATE COLLEGE  MOSUNNY   75  50  41 NW16      30.07F                  
WILLIAMSPORT   FAIR      79  43  27 NW17G29   30.00F                  
BINGHAMTON     CLOUDY    59  48  67 N14G23    30.08R                  
NEW YORK CITY  FAIR      73  49  42 N8G21     29.97R                  
BALTIMORE      FAIR      83  52  34 NW12G24   30.01S                  
WASHINGTON DC  FAIR      82  54  37 NW14G22   30.03F                  

$$